Location: Fort Wayne
(41.1310°N, 85.1290°W)
Time: 16:08:23
(UTC-04:00)

Gbstr 26 Del rocket - Visible Passes

Search period start: 27 May 2016 00:00
Search period end: 06 June 2016 00:00
Orbit: 493 x 1267 km, 51.8° (Epoch: 27 May)

Date Brightness Start Highest point End Pass type
(mag) Time Alt. Az. Time Alt. Az. Time Alt. Az.
27 May 5.6 22:19:58 10° WNW 22:26:20 32° SW 22:33:13 10° S visible
28 May 5.9 22:16:12 10° WNW 22:22:06 26° SW 22:28:26 10° S visible
29 May 6.2 22:12:35 10° W 22:17:51 21° SW 22:23:27 10° S visible
30 May 6.4 22:09:12 10° W 22:13:34 17° WSW 22:18:12 10° SSW visible
31 May 6.6 22:06:16 10° W 22:09:18 13° WSW 22:12:25 10° SW visible
